Location: York
(31.8935°S, 116.7682°E)
Time: 11:05:29
(UTC+08:00)

Vanguard 2 - Visible Passes

Search period start: 13 June 2021 00:00
Search period end: 23 June 2021 00:00
Orbit: 552 x 2937 km, 32.9° (Epoch: 12 June)

Date Brightness Start Highest point End Pass type
(mag) Time Alt. Az. Time Alt. Az. Time Alt. Az.
13 Jun 11.0 04:35:34 10° NNE 04:39:04 13° NE 04:43:16 10° ENE visible
13 Jun 10.2 06:38:21 10° NW 06:46:44 53° NNE 07:00:27 10° ESE visible
14 Jun 10.6 04:50:50 10° N 04:56:06 21° NE 05:03:19 10° E visible
15 Jun 10.4 05:07:09 10° NNW 05:13:13 29° NE 05:22:19 10° E visible
16 Jun 9.9 05:23:59 10° NNW 05:30:28 40° NE 05:40:52 10° E visible
17 Jun 10.6 03:39:00 10° NE 03:40:37 11° NE 03:42:24 10° ENE visible
17 Jun 9.5 05:41:09 10° NW 05:47:53 52° NNE 05:59:10 10° ESE visible
18 Jun 10.1 03:56:11 17° NNE 03:57:42 18° NE 04:02:53 10° E visible
18 Jun 9.2 05:58:31 10° WNW 06:05:27 66° NNE 06:17:22 10° ESE visible
19 Jun 9.6 04:13:32 25° NNE 04:14:52 27° NE 04:21:48 10° E visible
19 Jun 9.1 06:16:03 10° WNW 06:23:10 78° NNE 06:35:33 10° ESE visible
20 Jun 9.1 04:30:49 35° N 04:32:10 38° NE 04:40:15 10° E visible
20 Jun 9.0 06:33:43 10° WNW 06:41:00 87° NNE 06:53:44 10° E visible
21 Jun 8.6 04:48:01 42° NNW 04:49:38 52° NNE 04:58:29 10° E visible
22 Jun 8.4 05:05:10 44° NW 05:07:13 67° NNE 05:16:37 10° ESE visible
